Time,TemperatureF,DewpointF,PressureIn,WindDirection,WindDirectionDegrees,WindSpeedMPH,WindSpeedGustMPH,Humidity,HourlyPrecipIn,Conditions,Clouds,dailyrainin,SoftwareType,DateUTC
2013-07-15 00:01:00,70.5,66.5,30.30,ENE,68,0.0,0.0,87,0.00,,CLR,0.63,VWS V12.08,2013-07-15 04:01:00,
2013-07-15 00:03:00,70.5,66.5,30.30,ENE,68,0.0,0.0,87,0.00,,CLR,0.63,VWS V12.08,2013-07-15 04:03:00,
2013-07-15 00:05:00,70.5,66.5,30.30,ENE,68,0.0,0.0,87,0.00,,CLR,0.63,VWS V12.08,2013-07-15 04:05:00,
2013-07-15 00:10:00,70.3,66.3,30.30,ENE,68,0.0,0.0,87,0.00,,CLR,0.63,VWS V12.08,2013-07-15 04:10:00,
2013-07-15 00:15:00,70.3,66.3,30.30,ENE,68,0.0,0.0,87,0.00,,CLR,0.63,VWS V12.08,2013-07-15 04:15:00,
2013-07-15 00:20:00,70.3,66.3,30.30,ENE,68,0.0,0.0,87,0.00,,CLR,0.63,VWS V12.08,2013-07-15 04:20:00,
2013-07-15 00:25:00,70.2,66.1,30.31,ENE,68,0.0,0.0,87,0.00,,CLR,0.63,VWS V12.08,2013-07-15 04:25:00,
2013-07-15 00:30:00,70.2,66.1,30.30,East,90,0.0,0.0,87,0.00,,CLR,0.63,VWS V12.08,2013-07-15 04:30:00,
2013-07-15 00:35:00,70.2,66.1,30.30,East,90,0.0,0.0,87,0.00,,CLR,0.63,VWS V12.08,2013-07-15 04:35:00,
2013-07-15 00:40:00,70.0,65.9,30.30,East,90,0.0,0.0,87,0.00,,CLR,0.63,VWS V12.08,2013-07-15 04:40:00,
2013-07-15 00:45:00,70.0,65.9,30.30,East,90,0.0,0.0,87,0.00,,CLR,0.63,VWS V12.08,2013-07-15 04:45:00,
2013-07-15 00:50:00,69.8,65.8,30.30,East,90,0.0,0.0,87,0.00,,CLR,0.63,VWS V12.08,2013-07-15 04:50:00,
2013-07-15 00:51:00,69.8,65.8,30.30,East,90,0.0,0.0,87,0.00,,CLR,0.63,VWS V12.08,2013-07-15 04:51:00,
2013-07-15 00:56:00,69.6,65.9,30.30,East,90,0.0,0.0,88,0.00,,CLR,0.63,VWS V12.08,2013-07-15 04:56:00,
2013-07-15 01:01:00,69.6,65.9,30.30,East,90,0.0,0.0,88,0.00,,CLR,0.63,VWS V12.08,2013-07-15 05:01:00,
2013-07-15 01:06:00,69.6,65.9,30.30,ENE,68,0.0,0.0,88,0.00,,CLR,0.63,VWS V12.08,2013-07-15 05:06:00,
2013-07-15 01:11:00,69.6,65.9,30.30,ENE,68,0.0,0.0,88,0.00,,CLR,0.63,VWS V12.08,2013-07-15 05:11:00,
2013-07-15 01:16:00,69.4,65.7,30.30,ENE,68,0.0,0.0,88,0.00,,CLR,0.63,VWS V12.08,2013-07-15 05:16:00,
2013-07-15 01:21:00,69.4,65.7,30.30,ENE,68,0.0,0.0,88,0.00,,CLR,0.63,VWS V12.08,2013-07-15 05:21:00,
2013-07-15 01:26:00,69.4,65.7,30.30,ENE,68,0.0,0.0,88,0.00,,CLR,0.63,VWS V12.08,2013-07-15 05:26:00,
2013-07-15 01:31:00,69.4,65.7,30.30,ENE,68,0.0,0.0,88,0.00,,CLR,0.63,VWS V12.08,2013-07-15 05:31:00,
2013-07-15 01:36:00,69.3,65.6,30.30,ENE,68,0.0,0.0,88,0.00,,CLR,0.63,VWS V12.08,2013-07-15 05:36:00,
2013-07-15 01:41:00,69.3,65.6,30.31,ENE,68,0.0,0.0,88,0.00,,CLR,0.63,VWS V12.08,2013-07-15 05:41:00,
2013-07-15 01:46:00,69.4,65.7,30.30,ENE,68,0.0,0.0,88,0.00,,CLR,0.63,VWS V12.08,2013-07-15 05:46:00,
2013-07-15 01:51:00,69.4,65.7,30.30,East,90,0.0,0.0,88,0.00,,CLR,0.63,VWS V12.08,2013-07-15 05:51:00,
2013-07-15 01:56:00,69.4,65.7,30.30,East,90,0.0,0.0,88,0.00,,CLR,0.63,VWS V12.08,2013-07-15 05:56:00,
2013-07-15 02:01:00,69.4,65.7,30.30,East,90,0.0,0.0,88,0.00,,CLR,0.63,VWS V12.08,2013-07-15 06:01:00,
2013-07-15 02:06:00,69.3,65.6,30.30,East,90,0.0,0.0,88,0.00,,CLR,0.28,VWS V12.08,2013-07-15 06:06:00,
2013-07-15 02:11:00,69.4,65.7,30.30,East,90,0.0,0.0,88,0.00,,CLR,0.28,VWS V12.08,2013-07-15 06:11:00,
2013-07-15 02:16:00,69.3,65.6,30.30,East,90,0.0,0.0,88,0.00,,CLR,0.28,VWS V12.08,2013-07-15 06:16:00,
2013-07-15 02:21:00,69.3,65.6,30.30,East,90,0.0,0.0,88,0.00,,CLR,0.28,VWS V12.08,2013-07-15 06:21:00,
2013-07-15 02:26:00,69.3,65.6,30.30,East,90,0.0,0.0,88,0.00,,CLR,0.28,VWS V12.08,2013-07-15 06:26:00,
2013-07-15 02:31:00,69.3,65.6,30.30,East,90,0.0,0.0,88,0.00,,CLR,0.28,VWS V12.08,2013-07-15 06:31:00,
2013-07-15 02:36:00,69.1,65.4,30.30,East,90,0.0,0.0,88,0.00,,CLR,0.28,VWS V12.08,2013-07-15 06:36:00,
2013-07-15 02:41:00,69.1,65.4,30.30,East,90,0.0,0.0,88,0.00,,CLR,0.28,VWS V12.08,2013-07-15 06:41:00,
2013-07-15 02:46:00,69.1,65.4,30.29,East,90,0.0,0.0,88,0.00,,CLR,0.28,VWS V12.08,2013-07-15 06:46:00,
2013-07-15 02:51:00,69.1,65.4,30.30,East,90,0.0,0.0,88,0.00,,CLR,0.28,VWS V12.08,2013-07-15 06:51:00,
2013-07-15 02:56:00,69.1,65.4,30.30,ENE,68,0.0,0.0,88,0.00,,CLR,0.28,VWS V12.08,2013-07-15 06:56:00,
2013-07-15 03:01:00,69.1,65.7,30.30,ENE,68,0.0,0.0,89,0.00,,CLR,0.22,VWS V12.08,2013-07-15 07:01:00,
2013-07-15 03:06:00,68.9,65.5,30.30,ENE,68,0.0,0.0,89,0.00,,CLR,0.22,VWS V12.08,2013-07-15 07:06:00,
2013-07-15 03:11:00,68.9,65.5,30.30,ENE,68,0.0,0.0,89,0.00,,CLR,0.22,VWS V12.08,2013-07-15 07:11:00,
2013-07-15 03:16:00,68.9,65.5,30.30,ENE,68,0.0,0.0,89,0.00,,CLR,0.22,VWS V12.08,2013-07-15 07:16:00,
2013-07-15 03:21:00,68.7,65.3,30.30,ENE,68,0.0,0.0,89,0.00,,CLR,0.22,VWS V12.08,2013-07-15 07:21:00,
2013-07-15 03:26:00,68.7,65.3,30.30,ENE,68,0.0,0.0,89,0.00,,CLR,0.22,VWS V12.08,2013-07-15 07:26:00,
2013-07-15 03:31:00,68.7,65.3,30.30,ENE,68,0.0,0.0,89,0.00,,CLR,0.22,VWS V12.08,2013-07-15 07:31:00,
2013-07-15 03:36:00,68.7,65.3,30.30,ENE,68,0.0,0.0,89,0.00,,CLR,0.22,VWS V12.08,2013-07-15 07:36:00,
2013-07-15 03:41:00,68.5,65.2,30.30,ENE,68,0.0,0.0,89,0.00,,CLR,0.22,VWS V12.08,2013-07-15 07:41:00,
2013-07-15 03:46:00,68.5,65.2,30.30,ENE,68,0.0,0.0,89,0.00,,CLR,0.22,VWS V12.08,2013-07-15 07:46:00,
2013-07-15 03:51:00,68.4,65.0,30.30,ENE,68,0.0,0.0,89,0.00,,CLR,0.22,VWS V12.08,2013-07-15 07:51:00,
2013-07-15 03:56:00,68.2,64.8,30.30,ENE,68,0.0,0.0,89,0.00,,CLR,0.22,VWS V12.08,2013-07-15 07:56:00,
2013-07-15 04:01:00,68.2,64.8,30.30,ENE,68,0.0,0.0,89,0.00,,CLR,0.22,VWS V12.08,2013-07-15 08:01:00,
2013-07-15 04:06:00,68.4,65.0,30.30,ENE,68,0.0,0.0,89,0.00,,CLR,0.22,VWS V12.08,2013-07-15 08:06:00,
2013-07-15 04:11:00,68.4,65.0,30.30,ENE,68,0.0,0.0,89,0.00,,CLR,0.22,VWS V12.08,2013-07-15 08:11:00,
2013-07-15 04:16:00,68.4,65.0,30.30,ENE,68,0.0,0.0,89,0.00,,CLR,0.22,VWS V12.08,2013-07-15 08:16:00,
2013-07-15 04:21:00,68.4,65.0,30.30,ENE,68,0.0,0.0,89,0.00,,CLR,0.22,VWS V12.08,2013-07-15 08:21:00,
2013-07-15 04:26:00,68.4,65.0,30.30,ENE,68,0.0,0.0,89,0.00,,CLR,0.22,VWS V12.08,2013-07-15 08:26:00,
2013-07-15 04:31:00,68.4,65.0,30.30,ENE,68,0.0,0.0,89,0.00,,CLR,0.22,VWS V12.08,2013-07-15 08:31:00,
2013-07-15 04:36:00,68.4,65.0,30.30,ENE,68,0.0,0.0,89,0.00,,CLR,0.22,VWS V12.08,2013-07-15 08:36:00,
2013-07-15 04:41:00,68.2,64.8,30.31,ENE,68,0.0,0.0,89,0.00,,CLR,0.22,VWS V12.08,2013-07-15 08:41:00,
2013-07-15 04:46:00,68.2,64.8,30.30,ENE,68,0.0,0.0,89,0.00,,CLR,0.22,VWS V12.08,2013-07-15 08:46:00,
2013-07-15 04:51:00,68.0,64.6,30.30,ENE,68,0.0,0.0,89,0.00,,CLR,0.22,VWS V12.08,2013-07-15 08:51:00,
2013-07-15 04:56:00,67.8,64.5,30.30,ENE,68,0.0,0.0,89,0.00,,CLR,0.22,VWS V12.08,2013-07-15 08:56:00,
2013-07-15 05:01:00,67.8,64.5,30.30,ENE,68,0.0,0.0,89,0.00,,CLR,0.19,VWS V12.08,2013-07-15 09:01:00,
2013-07-15 05:06:00,67.8,64.5,30.30,ENE,68,0.0,0.0,89,0.00,,CLR,0.19,VWS V12.08,2013-07-15 09:06:00,
2013-07-15 05:11:00,67.8,64.5,30.30,ENE,68,0.0,0.0,89,0.00,,CLR,0.19,VWS V12.08,2013-07-15 09:11:00,
2013-07-15 05:16:00,67.8,64.5,30.31,ENE,68,0.0,0.0,89,0.00,,CLR,0.19,VWS V12.08,2013-07-15 09:16:00,
2013-07-15 05:21:00,67.8,64.5,30.31,ENE,68,0.0,0.0,89,0.00,,CLR,0.19,VWS V12.08,2013-07-15 09:21:00,
2013-07-15 05:26:00,67.8,64.5,30.30,ENE,68,0.0,0.0,89,0.00,,CLR,0.19,VWS V12.08,2013-07-15 09:26:00,
2013-07-15 05:31:00,67.8,64.5,30.30,ENE,68,0.0,0.0,89,0.00,,CLR,0.19,VWS V12.08,2013-07-15 09:31:00,
2013-07-15 05:36:00,67.8,64.5,30.30,ENE,68,0.0,0.0,89,0.00,,CLR,0.19,VWS V12.08,2013-07-15 09:36:00,
2013-07-15 05:41:00,67.8,64.5,30.30,ENE,68,0.0,0.0,89,0.00,,CLR,0.19,VWS V12.08,2013-07-15 09:41:00,
2013-07-15 05:46:00,67.8,64.5,30.31,ENE,68,0.0,0.0,89,0.00,,CLR,0.19,VWS V12.08,2013-07-15 09:46:00,
2013-07-15 05:51:00,67.8,64.5,30.30,ENE,68,0.0,0.0,89,0.00,,CLR,0.19,VWS V12.08,2013-07-15 09:51:00,
2013-07-15 05:56:00,67.8,64.5,30.31,ENE,68,0.0,0.0,89,0.00,,CLR,0.19,VWS V12.08,2013-07-15 09:56:00,
2013-07-15 06:01:00,67.8,64.5,30.30,ENE,68,0.0,0.0,89,0.00,,CLR,0.17,VWS V12.08,2013-07-15 10:01:00,
2013-07-15 06:06:00,68.2,64.8,30.30,ENE,68,0.0,0.0,89,0.00,,CLR,0.17,VWS V12.08,2013-07-15 10:06:00,
2013-07-15 06:11:00,68.2,64.8,30.31,ENE,68,0.0,0.0,89,0.00,,CLR,0.17,VWS V12.08,2013-07-15 10:11:00,
2013-07-15 06:16:00,68.2,64.8,30.31,ENE,68,0.0,0.0,89,0.00,,CLR,0.17,VWS V12.08,2013-07-15 10:16:00,
2013-07-15 06:21:00,68.4,65.0,30.30,ENE,68,0.0,0.0,89,0.00,,CLR,0.17,VWS V12.08,2013-07-15 10:21:00,
2013-07-15 06:26:00,68.4,65.0,30.31,ENE,68,0.0,0.0,89,0.00,,CLR,0.17,VWS V12.08,2013-07-15 10:26:00,
2013-07-15 06:31:00,68.4,65.0,30.31,ENE,68,0.0,0.0,89,0.00,,CLR,0.17,VWS V12.08,2013-07-15 10:31:00,
2013-07-15 06:36:00,68.5,65.2,30.31,ENE,68,0.0,0.0,89,0.00,,CLR,0.17,VWS V12.08,2013-07-15 10:36:00,
2013-07-15 06:41:00,68.5,65.2,30.31,ENE,68,0.0,0.0,89,0.00,,CLR,0.17,VWS V12.08,2013-07-15 10:41:00,
2013-07-15 06:46:00,68.5,65.2,30.31,ENE,68,0.0,0.0,89,0.00,,CLR,0.17,VWS V12.08,2013-07-15 10:46:00,
2013-07-15 06:51:00,68.7,65.3,30.32,ENE,68,0.0,0.0,89,0.00,,CLR,0.17,VWS V12.08,2013-07-15 10:51:00,
2013-07-15 06:56:00,68.7,65.3,30.32,ENE,68,0.0,0.0,89,0.00,,CLR,0.17,VWS V12.08,2013-07-15 10:56:00,
2013-07-15 07:01:00,68.7,65.3,30.32,ENE,68,0.0,0.0,89,0.00,,CLR,0.17,VWS V12.08,2013-07-15 11:01:00,
2013-07-15 07:06:00,68.9,65.5,30.32,ENE,68,0.0,0.0,89,0.00,,CLR,0.17,VWS V12.08,2013-07-15 11:06:00,
2013-07-15 07:11:00,68.9,65.8,30.32,ESE,112,0.0,0.0,90,0.00,,CLR,0.17,VWS V12.08,2013-07-15 11:11:00,
2013-07-15 07:16:00,69.1,66.0,30.32,ESE,112,0.0,0.0,90,0.00,,CLR,0.17,VWS V12.08,2013-07-15 11:16:00,
2013-07-15 07:21:00,69.1,66.0,30.32,ESE,112,0.0,0.0,90,0.00,,CLR,0.17,VWS V12.08,2013-07-15 11:21:00,
2013-07-15 07:26:00,69.1,66.0,30.32,ESE,112,0.0,0.0,90,0.00,,CLR,0.17,VWS V12.08,2013-07-15 11:26:00,
2013-07-15 07:31:00,69.1,66.0,30.32,ESE,112,0.0,0.0,90,0.00,,CLR,0.17,VWS V12.08,2013-07-15 11:31:00,
2013-07-15 07:36:00,69.1,66.0,30.32,ESE,112,0.0,0.0,90,0.00,,CLR,0.17,VWS V12.08,2013-07-15 11:36:00,
2013-07-15 07:41:00,69.8,66.7,30.32,ESE,112,0.0,0.0,90,0.00,,CLR,0.17,VWS V12.08,2013-07-15 11:41:00,
2013-07-15 07:46:00,69.8,66.7,30.32,ESE,112,0.0,0.0,90,0.00,,CLR,0.17,VWS V12.08,2013-07-15 11:46:00,
2013-07-15 07:51:00,70.2,67.1,30.32,ESE,112,0.0,0.0,90,0.00,,CLR,0.17,VWS V12.08,2013-07-15 11:51:00,
2013-07-15 07:56:00,70.3,67.3,30.32,ESE,112,0.0,0.0,90,0.00,,CLR,0.17,VWS V12.08,2013-07-15 11:56:00,
2013-07-15 08:01:00,70.3,67.3,30.32,ESE,112,0.0,0.0,90,0.00,,CLR,0.17,VWS V12.08,2013-07-15 12:01:00,
2013-07-15 08:06:00,70.5,67.4,30.33,ESE,112,0.0,0.0,90,0.00,,CLR,0.17,VWS V12.08,2013-07-15 12:06:00,
2013-07-15 08:11:00,70.5,67.4,30.33,ESE,112,0.0,0.0,90,0.00,,CLR,0.17,VWS V12.08,2013-07-15 12:11:00,
2013-07-15 08:16:00,70.5,67.4,30.33,ESE,112,0.0,0.0,90,0.00,,CLR,0.17,VWS V12.08,2013-07-15 12:16:00,
2013-07-15 08:21:00,70.7,67.6,30.33,ESE,112,0.0,0.0,90,0.00,,CLR,0.17,VWS V12.08,2013-07-15 12:21:00,
2013-07-15 08:26:00,70.7,67.6,30.33,ESE,112,0.0,0.0,90,0.00,,CLR,0.17,VWS V12.08,2013-07-15 12:26:00,
2013-07-15 08:31:00,71.1,68.0,30.34,ESE,112,0.0,0.0,90,0.00,,CLR,0.17,VWS V12.08,2013-07-15 12:31:00,
2013-07-15 08:36:00,71.1,68.0,30.34,ESE,112,0.0,0.0,90,0.00,,CLR,0.17,VWS V12.08,2013-07-15 12:36:00,
2013-07-15 08:41:00,71.2,68.2,30.34,ESE,112,0.0,0.0,90,0.00,,CLR,0.17,VWS V12.08,2013-07-15 12:41:00,
2013-07-15 08:46:00,71.4,68.3,30.34,ESE,112,0.0,0.0,90,0.00,,CLR,0.17,VWS V12.08,2013-07-15 12:46:00,
2013-07-15 08:51:00,71.8,68.7,30.34,ESE,112,0.0,0.0,90,0.00,,CLR,0.17,VWS V12.08,2013-07-15 12:51:00,
2013-07-15 08:56:00,71.8,68.7,30.34,ESE,112,0.0,0.0,90,0.00,,CLR,0.17,VWS V12.08,2013-07-15 12:56:00,
2013-07-15 09:01:00,72.3,69.2,30.33,ESE,112,0.0,0.0,90,0.00,,CLR,0.11,VWS V12.08,2013-07-15 13:01:00,
2013-07-15 09:06:00,72.3,69.2,30.33,ESE,112,0.0,0.0,90,0.00,,CLR,0.11,VWS V12.08,2013-07-15 13:06:00,
2013-07-15 09:11:00,72.5,69.4,30.33,ESE,112,0.0,0.0,90,0.00,,CLR,0.11,VWS V12.08,2013-07-15 13:11:00,
2013-07-15 09:16:00,72.5,69.4,30.33,ESE,112,0.0,0.0,90,0.00,,CLR,0.11,VWS V12.08,2013-07-15 13:16:00,
2013-07-15 09:21:00,72.7,69.6,30.34,East,90,0.0,0.0,90,0.00,,CLR,0.11,VWS V12.08,2013-07-15 13:21:00,
2013-07-15 09:26:00,72.5,69.4,30.34,East,90,0.0,0.0,90,0.00,,CLR,0.11,VWS V12.08,2013-07-15 13:26:00,
2013-07-15 09:31:00,72.7,69.6,30.34,North,0,0.0,0.0,90,0.00,,CLR,0.11,VWS V12.08,2013-07-15 13:31:00,
2013-07-15 09:36:00,72.9,69.8,30.34,NW,315,0.0,0.0,90,0.00,,CLR,0.11,VWS V12.08,2013-07-15 13:36:00,
2013-07-15 09:41:00,73.0,69.9,30.34,NNW,338,0.0,0.0,90,0.00,,CLR,0.11,VWS V12.08,2013-07-15 13:41:00,
2013-07-15 09:46:00,73.2,69.8,30.34,WNW,292,0.0,0.0,89,0.00,,CLR,0.11,VWS V12.08,2013-07-15 13:46:00,
2013-07-15 09:51:00,73.6,70.1,30.34,NNW,338,0.0,0.0,89,0.00,,CLR,0.11,VWS V12.08,2013-07-15 13:51:00,
2013-07-15 09:56:00,73.9,70.5,30.34,NNW,338,0.0,0.0,89,0.00,,CLR,0.11,VWS V12.08,2013-07-15 13:56:00,
2013-07-15 10:01:00,74.1,70.3,30.33,WNW,292,0.0,0.0,88,0.00,,CLR,0.11,VWS V12.08,2013-07-15 14:01:00,
2013-07-15 10:06:00,74.1,70.0,30.33,WNW,292,0.0,0.0,87,0.00,,CLR,0.11,VWS V12.08,2013-07-15 14:06:00,
2013-07-15 10:11:00,74.1,69.7,30.33,WNW,292,0.0,0.0,86,0.00,,CLR,0.11,VWS V12.08,2013-07-15 14:11:00,
2013-07-15 10:16:00,74.3,69.5,30.33,NW,315,0.0,0.0,85,0.00,,CLR,0.11,VWS V12.08,2013-07-15 14:16:00,
2013-07-15 10:21:00,74.5,69.7,30.33,NNW,338,0.0,0.0,85,0.00,,CLR,0.11,VWS V12.08,2013-07-15 14:21:00,
2013-07-15 10:26:00,74.5,69.7,30.34,NW,315,0.0,0.0,85,0.00,,CLR,0.11,VWS V12.08,2013-07-15 14:26:00,
2013-07-15 10:31:00,74.8,69.7,30.34,WNW,292,0.0,0.0,84,0.00,,CLR,0.11,VWS V12.08,2013-07-15 14:31:00,
2013-07-15 10:36:00,75.0,69.5,30.33,West,270,0.0,0.0,83,0.00,,CLR,0.11,VWS V12.08,2013-07-15 14:36:00,
2013-07-15 10:41:00,75.4,70.2,30.34,West,270,0.0,0.0,84,0.00,,CLR,0.11,VWS V12.08,2013-07-15 14:41:00,
2013-07-15 10:46:00,75.7,70.6,30.33,West,270,0.0,0.0,84,0.00,,CLR,0.11,VWS V12.08,2013-07-15 14:46:00,
2013-07-15 10:51:00,76.1,70.2,30.34,WNW,292,0.0,0.0,82,0.00,,CLR,0.11,VWS V12.08,2013-07-15 14:51:00,
2013-07-15 10:57:00,76.5,70.2,30.34,NNE,22,0.0,0.0,81,0.00,,CLR,0.11,VWS V12.08,2013-07-15 14:57:00,
2013-07-15 11:02:00,76.8,70.2,30.34,NNE,22,0.0,0.0,80,0.00,,CLR,0.11,VWS V12.08,2013-07-15 15:02:00,
2013-07-15 11:07:00,77.4,70.0,30.34,NNW,338,0.0,0.0,78,0.00,,CLR,0.11,VWS V12.08,2013-07-15 15:07:00,
2013-07-15 11:13:00,77.5,70.1,30.34,SW,225,0.0,0.0,78,0.00,,CLR,0.11,VWS V12.08,2013-07-15 15:13:00,
2013-07-15 11:18:00,77.7,69.9,30.34,SSW,202,0.0,0.0,77,0.00,,CLR,0.11,VWS V12.08,2013-07-15 15:18:00,
2013-07-15 11:23:00,77.7,69.6,30.33,ENE,68,0.0,0.0,76,0.00,,CLR,0.11,VWS V12.08,2013-07-15 15:23:00,
2013-07-15 11:28:00,77.4,68.8,30.34,ENE,68,0.0,0.0,75,0.00,,CLR,0.11,VWS V12.08,2013-07-15 15:28:00,
2013-07-15 11:33:00,77.2,69.4,30.34,East,90,0.0,0.0,77,0.00,,CLR,0.11,VWS V12.08,2013-07-15 15:33:00,
2013-07-15 11:38:00,77.2,69.4,30.34,NW,315,0.0,0.0,77,0.00,,CLR,0.11,VWS V12.08,2013-07-15 15:38:00,
2013-07-15 11:43:00,77.2,68.7,30.34,NW,315,0.0,0.9,75,0.00,,CLR,0.11,VWS V12.08,2013-07-15 15:43:00,
2013-07-15 11:48:00,77.2,68.7,30.34,NNE,22,0.0,0.9,75,0.00,,CLR,0.11,VWS V12.08,2013-07-15 15:48:00,
2013-07-15 11:53:00,77.2,69.4,30.34,WNW,292,0.0,0.9,77,0.00,,CLR,0.11,VWS V12.08,2013-07-15 15:53:00,
2013-07-15 12:00:00,77.7,70.3,30.34,West,270,0.0,0.9,78,0.00,,CLR,0.11,VWS V12.08,2013-07-15 16:00:00,
2013-07-15 12:05:00,78.1,70.3,30.33,WSW,248,0.0,0.0,77,0.00,,CLR,0.11,VWS V12.08,2013-07-15 16:05:00,
2013-07-15 12:10:00,78.1,70.3,30.33,East,90,0.0,0.0,77,0.00,,CLR,0.11,VWS V12.08,2013-07-15 16:10:00,
2013-07-15 12:15:00,78.8,71.4,30.33,WNW,292,0.0,0.0,78,0.00,,CLR,0.11,VWS V12.08,2013-07-15 16:15:00,
2013-07-15 12:20:00,79.0,71.5,30.33,NNW,338,0.0,0.0,78,0.00,,CLR,0.11,VWS V12.08,2013-07-15 16:20:00,
2013-07-15 12:25:00,80.2,71.2,30.34,NNE,22,0.0,0.0,74,0.00,,CLR,0.11,VWS V12.08,2013-07-15 16:25:00,
2013-07-15 12:30:00,80.8,70.9,30.34,ENE,68,0.0,0.0,72,0.00,,CLR,0.11,VWS V12.08,2013-07-15 16:30:00,
2013-07-15 12:35:00,81.3,71.4,30.34,ESE,112,0.0,0.0,72,0.00,,CLR,0.11,VWS V12.08,2013-07-15 16:35:00,
2013-07-15 12:41:00,81.3,71.8,30.33,ESE,112,0.0,0.0,73,0.00,,CLR,0.11,VWS V12.08,2013-07-15 16:41:00,
2013-07-15 12:46:00,82.0,72.1,30.33,SW,225,0.0,0.0,72,0.00,,CLR,0.11,VWS V12.08,2013-07-15 16:46:00,
2013-07-15 12:52:00,82.4,71.2,30.33,East,90,0.0,0.0,69,0.00,,CLR,0.11,VWS V12.08,2013-07-15 16:52:00,
2013-07-15 12:57:00,82.6,70.5,30.33,East,90,0.0,0.0,67,0.00,,CLR,0.11,VWS V12.08,2013-07-15 16:57:00,
2013-07-15 13:02:00,81.9,69.8,30.33,East,90,0.0,0.0,67,0.00,,CLR,0.09,VWS V12.08,2013-07-15 17:02:00,
2013-07-15 13:07:00,81.3,69.8,30.33,SE,135,0.0,0.0,68,0.00,,CLR,0.09,VWS V12.08,2013-07-15 17:07:00,
2013-07-15 13:12:00,81.7,69.7,30.33,ENE,68,0.0,0.0,67,0.00,,CLR,0.09,VWS V12.08,2013-07-15 17:12:00,
2013-07-15 13:17:00,81.7,70.1,30.33,ENE,68,0.0,0.0,68,0.00,,CLR,0.09,VWS V12.08,2013-07-15 17:17:00,
2013-07-15 13:22:00,82.2,72.3,30.33,East,90,0.0,0.0,72,0.00,,CLR,0.09,VWS V12.08,2013-07-15 17:22:00,
2013-07-15 13:28:00,82.6,70.5,30.32,SE,135,0.0,0.0,67,0.00,,CLR,0.09,VWS V12.08,2013-07-15 17:28:00,
2013-07-15 13:33:00,83.1,71.9,30.32,ENE,68,0.0,0.0,69,0.00,,CLR,0.09,VWS V12.08,2013-07-15 17:33:00,
2013-07-15 13:38:00,83.1,71.9,30.32,NE,45,0.0,0.0,69,0.00,,CLR,0.09,VWS V12.08,2013-07-15 17:38:00,
2013-07-15 13:43:00,83.8,71.3,30.32,NE,45,0.0,0.0,66,0.00,,CLR,0.09,VWS V12.08,2013-07-15 17:43:00,
2013-07-15 13:48:00,83.8,70.8,30.32,NE,45,0.0,0.0,65,0.00,,CLR,0.09,VWS V12.08,2013-07-15 17:48:00,
2013-07-15 13:53:00,83.8,70.8,30.32,NE,45,0.0,0.0,65,0.00,,CLR,0.09,VWS V12.08,2013-07-15 17:53:00,
2013-07-15 13:58:00,83.5,70.0,30.32,East,90,0.0,0.0,64,0.00,,CLR,0.09,VWS V12.08,2013-07-15 17:58:00,
2013-07-15 14:03:00,83.3,71.6,30.32,East,90,0.0,0.0,68,0.00,,CLR,0.06,VWS V12.08,2013-07-15 18:03:00,
2013-07-15 14:09:00,83.5,72.7,30.32,SW,225,0.0,0.0,70,0.00,,CLR,0.06,VWS V12.08,2013-07-15 18:09:00,
2013-07-15 14:14:00,84.0,71.0,30.32,West,270,0.0,0.0,65,0.00,,CLR,0.06,VWS V12.08,2013-07-15 18:14:00,
2013-07-15 14:20:00,84.6,72.4,30.32,ESE,112,0.0,0.0,67,0.00,,CLR,0.06,VWS V12.08,2013-07-15 18:20:00,
2013-07-15 14:25:00,84.6,70.1,30.31,East,90,0.0,0.0,62,0.00,,CLR,0.06,VWS V12.08,2013-07-15 18:25:00,
2013-07-15 14:30:00,84.6,70.6,30.31,ENE,68,0.0,0.0,63,0.00,,CLR,0.06,VWS V12.08,2013-07-15 18:30:00,
2013-07-15 14:35:00,84.6,71.1,30.31,ENE,68,0.0,0.0,64,0.00,,CLR,0.06,VWS V12.08,2013-07-15 18:35:00,
2013-07-15 14:40:00,84.7,71.2,30.31,East,90,0.0,0.0,64,0.00,,CLR,0.06,VWS V12.08,2013-07-15 18:40:00,
2013-07-15 14:45:00,85.1,70.2,30.31,ESE,112,0.0,0.0,61,0.00,,CLR,0.06,VWS V12.08,2013-07-15 18:45:00,
2013-07-15 14:50:00,85.3,70.3,30.30,SSW,202,0.0,0.0,61,0.00,,CLR,0.06,VWS V12.08,2013-07-15 18:50:00,
2013-07-15 14:55:00,85.6,71.1,30.30,North,0,0.0,0.0,62,0.00,,CLR,0.06,VWS V12.08,2013-07-15 18:55:00,
2013-07-15 15:00:00,85.8,70.8,30.30,WNW,292,0.0,0.0,61,0.00,,CLR,0.06,VWS V12.08,2013-07-15 19:00:00,
2013-07-15 15:05:00,86.2,70.7,30.30,West,270,0.0,0.0,60,0.00,,CLR,0.06,VWS V12.08,2013-07-15 19:05:00,
2013-07-15 15:10:00,86.2,69.7,30.30,West,270,0.0,5.4,58,0.00,,CLR,0.06,VWS V12.08,2013-07-15 19:10:00,
2013-07-15 15:16:00,86.2,71.6,30.30,East,90,0.0,5.4,62,0.00,,CLR,0.06,VWS V12.08,2013-07-15 19:16:00,
2013-07-15 15:21:00,85.8,71.3,30.29,ENE,68,0.0,0.0,62,0.00,,CLR,0.06,VWS V12.08,2013-07-15 19:21:00,
2013-07-15 15:26:00,85.8,70.3,30.30,SE,135,0.0,0.0,60,0.00,,CLR,0.06,VWS V12.08,2013-07-15 19:26:00,
2013-07-15 15:31:00,86.0,71.0,30.29,ESE,112,0.0,0.0,61,0.00,,CLR,0.06,VWS V12.08,2013-07-15 19:31:00,
2013-07-15 15:36:00,86.0,70.5,30.29,ESE,112,0.0,0.0,60,0.00,,CLR,0.06,VWS V12.08,2013-07-15 19:36:00,
2013-07-15 15:41:00,86.2,70.7,30.29,ENE,68,0.0,0.0,60,0.00,,CLR,0.06,VWS V12.08,2013-07-15 19:41:00,
2013-07-15 15:46:00,86.2,69.7,30.29,ENE,68,0.0,0.0,58,0.00,,CLR,0.06,VWS V12.08,2013-07-15 19:46:00,
2013-07-15 15:51:00,86.2,70.7,30.29,ENE,68,0.0,0.0,60,0.00,,CLR,0.06,VWS V12.08,2013-07-15 19:51:00,
2013-07-15 15:56:00,85.3,69.3,30.29,East,90,0.0,0.0,59,0.00,,CLR,0.06,VWS V12.08,2013-07-15 19:56:00,
2013-07-15 16:02:00,85.1,70.6,30.29,ENE,68,0.0,0.0,62,0.00,,CLR,0.06,VWS V12.08,2013-07-15 20:02:00,
2013-07-15 16:07:00,85.3,71.3,30.29,ENE,68,0.0,0.0,63,0.00,,CLR,0.06,VWS V12.08,2013-07-15 20:07:00,
2013-07-15 16:12:00,85.8,69.8,30.28,ESE,112,0.0,0.0,59,0.00,,CLR,0.06,VWS V12.08,2013-07-15 20:12:00,
2013-07-15 16:17:00,85.8,70.3,30.29,ENE,68,0.0,0.0,60,0.00,,CLR,0.06,VWS V12.08,2013-07-15 20:17:00,
2013-07-15 16:23:00,85.8,69.3,30.28,NE,45,0.0,0.0,58,0.00,,CLR,0.06,VWS V12.08,2013-07-15 20:23:00,
2013-07-15 16:28:00,86.4,69.8,30.28,ENE,68,0.0,0.0,58,0.00,,CLR,0.06,VWS V12.08,2013-07-15 20:28:00,
2013-07-15 16:33:00,86.7,70.7,30.28,ENE,68,0.0,0.0,59,0.00,,CLR,0.06,VWS V12.08,2013-07-15 20:33:00,
2013-07-15 16:38:00,86.7,70.7,30.28,ENE,68,0.0,0.0,59,0.00,,CLR,0.06,VWS V12.08,2013-07-15 20:38:00,
2013-07-15 16:43:00,86.5,70.5,30.29,ENE,68,0.0,0.0,59,0.00,,CLR,0.06,VWS V12.08,2013-07-15 20:43:00,
2013-07-15 16:48:00,86.5,71.0,30.29,South,180,0.0,0.0,60,0.00,,CLR,0.06,VWS V12.08,2013-07-15 20:48:00,
2013-07-15 16:53:00,86.5,71.5,30.28,ENE,68,0.0,0.0,61,0.00,,CLR,0.06,VWS V12.08,2013-07-15 20:53:00,
2013-07-15 16:58:00,86.4,71.3,30.28,ENE,68,0.0,0.0,61,0.00,,CLR,0.06,VWS V12.08,2013-07-15 20:58:00,
2013-07-15 17:04:00,86.5,71.5,30.28,ENE,68,0.0,0.0,61,0.00,,CLR,0.06,VWS V12.08,2013-07-15 21:04:00,
2013-07-15 17:09:00,86.4,70.3,30.28,ENE,68,0.0,0.0,59,0.00,,CLR,0.06,VWS V12.08,2013-07-15 21:09:00,
2013-07-15 17:14:00,86.2,70.2,30.27,ENE,68,0.0,0.0,59,0.00,,CLR,0.06,VWS V12.08,2013-07-15 21:14:00,
2013-07-15 17:19:00,86.2,69.7,30.27,ENE,68,0.0,0.0,58,0.00,,CLR,0.06,VWS V12.08,2013-07-15 21:19:00,
2013-07-15 17:24:00,85.8,68.3,30.27,ENE,68,0.0,0.0,56,0.00,,CLR,0.06,VWS V12.08,2013-07-15 21:24:00,
2013-07-15 17:29:00,85.8,69.8,30.27,ENE,68,0.0,0.0,59,0.00,,CLR,0.06,VWS V12.08,2013-07-15 21:29:00,
2013-07-15 17:34:00,85.8,69.3,30.27,ENE,68,0.0,0.0,58,0.00,,CLR,0.06,VWS V12.08,2013-07-15 21:34:00,
2013-07-15 17:40:00,86.2,70.2,30.27,East,90,0.0,0.0,59,0.00,,CLR,0.06,VWS V12.08,2013-07-15 21:40:00,
2013-07-15 17:45:00,86.2,70.2,30.27,ENE,68,0.0,0.0,59,0.00,,CLR,0.06,VWS V12.08,2013-07-15 21:45:00,
2013-07-15 17:50:00,85.8,70.3,30.27,East,90,0.0,0.0,60,0.00,,CLR,0.06,VWS V12.08,2013-07-15 21:50:00,
2013-07-15 17:55:00,85.5,70.0,30.27,East,90,0.0,0.0,60,0.00,,CLR,0.06,VWS V12.08,2013-07-15 21:55:00,
2013-07-15 18:00:00,85.3,70.3,30.27,East,90,0.0,0.0,61,0.00,,CLR,0.04,VWS V12.08,2013-07-15 22:00:00,
2013-07-15 18:05:00,85.1,71.1,30.27,East,90,0.0,0.0,63,0.00,,CLR,0.04,VWS V12.08,2013-07-15 22:05:00,
2013-07-15 18:10:00,84.9,70.5,30.27,SSW,202,0.0,0.0,62,0.00,,CLR,0.04,VWS V12.08,2013-07-15 22:10:00,
2013-07-15 18:15:00,84.9,70.9,30.27,ESE,112,0.0,0.0,63,0.00,,CLR,0.04,VWS V12.08,2013-07-15 22:15:00,
2013-07-15 18:20:00,84.7,70.3,30.27,ESE,112,0.0,0.0,62,0.00,,CLR,0.04,VWS V12.08,2013-07-15 22:20:00,
2013-07-15 18:26:00,84.9,70.9,30.27,ESE,112,0.0,0.0,63,0.00,,CLR,0.04,VWS V12.08,2013-07-15 22:26:00,
2013-07-15 18:31:00,84.9,70.9,30.27,ESE,112,0.0,0.0,63,0.00,,CLR,0.04,VWS V12.08,2013-07-15 22:31:00,
2013-07-15 18:36:00,84.7,70.8,30.26,East,90,0.0,0.0,63,0.00,,CLR,0.04,VWS V12.08,2013-07-15 22:36:00,
2013-07-15 18:41:00,84.7,71.2,30.26,East,90,0.0,0.0,64,0.00,,CLR,0.04,VWS V12.08,2013-07-15 22:41:00,
2013-07-15 18:46:00,84.6,71.5,30.27,East,90,0.0,0.0,65,0.00,,CLR,0.04,VWS V12.08,2013-07-15 22:46:00,
2013-07-15 18:52:00,84.4,71.3,30.27,East,90,0.0,0.0,65,0.00,,CLR,0.04,VWS V12.08,2013-07-15 22:52:00,
2013-07-15 18:57:00,84.2,71.2,30.27,ENE,68,0.0,0.0,65,0.00,,CLR,0.04,VWS V12.08,2013-07-15 22:57:00,
2013-07-15 19:02:00,84.0,71.0,30.27,ENE,68,0.0,0.0,65,0.00,,CLR,0.02,VWS V12.08,2013-07-15 23:02:00,
2013-07-15 19:07:00,83.8,70.8,30.27,ENE,68,0.0,0.0,65,0.00,,CLR,0.02,VWS V12.08,2013-07-15 23:07:00,
2013-07-15 19:13:00,83.8,71.3,30.27,ENE,68,0.0,0.0,66,0.00,,CLR,0.02,VWS V12.08,2013-07-15 23:13:00,
2013-07-15 19:18:00,84.4,71.8,30.28,ENE,68,0.0,0.0,66,0.00,,CLR,0.02,VWS V12.08,2013-07-15 23:18:00,
2013-07-15 19:24:00,84.6,71.5,30.28,ENE,68,0.0,0.0,65,0.00,,CLR,0.02,VWS V12.08,2013-07-15 23:24:00,
2013-07-15 19:29:00,83.8,70.8,30.28,ENE,68,0.0,0.0,65,0.00,,CLR,0.02,VWS V12.08,2013-07-15 23:29:00,
2013-07-15 19:34:00,83.8,71.3,30.28,ENE,68,0.0,0.0,66,0.00,,CLR,0.02,VWS V12.08,2013-07-15 23:34:00,
2013-07-15 19:39:00,83.5,70.9,30.28,ENE,68,0.0,0.0,66,0.00,,CLR,0.02,VWS V12.08,2013-07-15 23:39:00,
2013-07-15 19:45:00,82.9,70.4,30.27,ENE,68,0.0,0.0,66,0.00,,CLR,0.02,VWS V12.08,2013-07-15 23:45:00,
2013-07-15 19:50:00,82.2,70.2,30.28,ENE,68,0.0,0.0,67,0.00,,CLR,0.02,VWS V12.08,2013-07-15 23:50:00,
2013-07-15 19:55:00,81.3,69.8,30.28,ENE,68,0.0,0.0,68,0.00,,CLR,0.02,VWS V12.08,2013-07-15 23:55:00,
2013-07-15 20:00:00,80.6,69.5,30.28,ENE,68,0.0,0.0,69,0.00,,CLR,0.02,VWS V12.08,2013-07-16 00:00:00,
2013-07-15 20:05:00,80.2,69.6,30.28,ENE,68,0.0,0.0,70,0.00,,CLR,0.02,VWS V12.08,2013-07-16 00:05:00,
2013-07-15 20:10:00,80.2,69.6,30.28,ENE,68,0.0,0.0,70,0.00,,CLR,0.02,VWS V12.08,2013-07-16 00:10:00,
2013-07-15 20:16:00,79.3,69.1,30.28,ENE,68,0.0,0.0,71,0.00,,CLR,0.02,VWS V12.08,2013-07-16 00:16:00,
2013-07-15 20:22:00,79.0,68.8,30.28,ENE,68,0.0,0.0,71,0.00,,CLR,0.02,VWS V12.08,2013-07-16 00:22:00,
2013-07-15 20:27:00,78.4,68.7,30.28,ENE,68,0.0,0.0,72,0.00,,CLR,0.02,VWS V12.08,2013-07-16 00:27:00,
2013-07-15 20:32:00,78.4,69.1,30.28,ENE,68,0.0,0.0,73,0.00,,CLR,0.02,VWS V12.08,2013-07-16 00:32:00,
2013-07-15 20:37:00,77.5,68.2,30.28,ENE,68,0.0,0.0,73,0.00,,CLR,0.02,VWS V12.08,2013-07-16 00:37:00,
2013-07-15 20:42:00,77.2,68.3,30.28,ENE,68,0.0,0.0,74,0.00,,CLR,0.02,VWS V12.08,2013-07-16 00:42:00,
2013-07-15 20:48:00,76.6,67.7,30.27,ENE,68,0.0,0.0,74,0.00,,CLR,0.02,VWS V12.08,2013-07-16 00:48:00,
2013-07-15 20:53:00,76.3,67.8,30.27,ENE,68,0.0,0.0,75,0.00,,CLR,0.02,VWS V12.08,2013-07-16 00:53:00,
2013-07-15 20:58:00,75.9,67.4,30.27,ENE,68,0.0,0.0,75,0.00,,CLR,0.02,VWS V12.08,2013-07-16 00:58:00,
2013-07-15 21:03:00,75.7,67.6,30.28,ENE,68,0.0,0.0,76,0.00,,CLR,0.00,VWS V12.08,2013-07-16 01:03:00,
2013-07-15 21:08:00,75.4,67.3,30.28,ENE,68,0.0,0.0,76,0.00,,CLR,0.00,VWS V12.08,2013-07-16 01:08:00,
2013-07-15 21:13:00,75.0,67.3,30.28,ENE,68,0.0,0.0,77,0.00,,CLR,0.00,VWS V12.08,2013-07-16 01:13:00,
2013-07-15 21:19:00,75.0,67.3,30.28,ENE,68,0.0,0.0,77,0.00,,CLR,0.00,VWS V12.08,2013-07-16 01:19:00,
2013-07-15 21:24:00,74.8,67.2,30.28,ENE,68,0.0,0.0,77,0.00,,CLR,0.00,VWS V12.08,2013-07-16 01:24:00,
2013-07-15 21:29:00,74.5,67.2,30.28,ENE,68,0.0,0.0,78,0.00,,CLR,0.00,VWS V12.08,2013-07-16 01:29:00,
2013-07-15 21:34:00,74.3,67.0,30.29,ENE,68,0.0,0.0,78,0.00,,CLR,0.00,VWS V12.08,2013-07-16 01:34:00,
2013-07-15 21:39:00,74.1,66.8,30.29,ENE,68,0.0,0.0,78,0.00,,CLR,0.00,VWS V12.08,2013-07-16 01:39:00,
2013-07-15 21:44:00,73.9,66.7,30.29,East,90,0.0,0.0,78,0.00,,CLR,0.00,VWS V12.08,2013-07-16 01:44:00,
2013-07-15 21:50:00,73.9,67.0,30.29,East,90,0.0,0.0,79,0.00,,CLR,0.00,VWS V12.08,2013-07-16 01:50:00,
2013-07-15 21:55:00,73.6,66.7,30.30,East,90,0.0,0.0,79,0.00,,CLR,0.00,VWS V12.08,2013-07-16 01:55:00,
2013-07-15 22:01:00,73.4,66.5,30.30,East,90,0.0,0.0,79,0.00,,CLR,0.00,VWS V12.08,2013-07-16 02:01:00,
2013-07-15 22:06:00,73.2,66.3,30.30,East,90,0.0,0.0,79,0.00,,CLR,0.00,VWS V12.08,2013-07-16 02:06:00,
2013-07-15 22:11:00,73.2,66.7,30.30,East,90,0.0,0.0,80,0.00,,CLR,0.00,VWS V12.08,2013-07-16 02:11:00,
2013-07-15 22:16:00,73.0,66.5,30.30,East,90,0.0,0.0,80,0.00,,CLR,0.00,VWS V12.08,2013-07-16 02:16:00,
2013-07-15 22:22:00,72.7,65.8,30.30,East,90,0.0,0.0,79,0.00,,CLR,0.00,VWS V12.08,2013-07-16 02:22:00,
2013-07-15 22:27:00,72.5,65.6,30.30,East,90,0.0,0.0,79,0.00,,CLR,0.00,VWS V12.08,2013-07-16 02:27:00,
2013-07-15 22:32:00,72.5,65.6,30.30,East,90,0.0,0.0,79,0.00,,CLR,0.00,VWS V12.08,2013-07-16 02:32:00,
2013-07-15 22:37:00,72.3,65.8,30.30,East,90,0.0,0.0,80,0.00,,CLR,0.00,VWS V12.08,2013-07-16 02:37:00,
2013-07-15 22:43:00,72.1,65.6,30.30,East,90,0.0,0.0,80,0.00,,CLR,0.00,VWS V12.08,2013-07-16 02:43:00,
2013-07-15 22:48:00,72.1,65.6,30.30,East,90,0.0,0.0,80,0.00,,CLR,0.00,VWS V12.08,2013-07-16 02:48:00,
2013-07-15 22:53:00,72.0,65.5,30.30,East,90,0.0,0.0,80,0.00,,CLR,0.00,VWS V12.08,2013-07-16 02:53:00,
2013-07-15 22:58:00,72.0,65.5,30.30,East,90,0.0,0.0,80,0.00,,CLR,0.00,VWS V12.08,2013-07-16 02:58:00,
2013-07-15 23:03:00,71.8,65.6,30.30,East,90,0.0,0.0,81,0.00,,CLR,0.00,VWS V12.08,2013-07-16 03:03:00,
2013-07-15 23:08:00,71.6,65.5,30.30,East,90,0.0,0.0,81,0.00,,CLR,0.00,VWS V12.08,2013-07-16 03:08:00,
2013-07-15 23:14:00,71.4,65.3,30.30,East,90,0.0,0.0,81,0.00,,CLR,0.00,VWS V12.08,2013-07-16 03:14:00,
2013-07-15 23:19:00,71.2,65.1,30.31,East,90,0.0,0.0,81,0.00,,CLR,0.00,VWS V12.08,2013-07-16 03:19:00,
2013-07-15 23:24:00,71.2,65.1,30.30,East,90,0.0,0.0,81,0.00,,CLR,0.00,VWS V12.08,2013-07-16 03:24:00,
2013-07-15 23:29:00,71.2,65.5,30.30,East,90,0.0,0.0,82,0.00,,CLR,0.00,VWS V12.08,2013-07-16 03:29:00,
2013-07-15 23:35:00,71.1,65.3,30.30,East,90,0.0,0.0,82,0.00,,CLR,0.00,VWS V12.08,2013-07-16 03:35:00,
2013-07-15 23:40:00,70.9,65.1,30.31,East,90,0.0,0.0,82,0.00,,CLR,0.00,VWS V12.08,2013-07-16 03:40:00,
2013-07-15 23:45:00,70.9,65.1,30.31,East,90,0.0,0.0,82,0.00,,CLR,0.00,VWS V12.08,2013-07-16 03:45:00,
2013-07-15 23:50:00,70.7,65.3,30.31,East,90,0.0,0.0,83,0.00,,CLR,0.00,VWS V12.08,2013-07-16 03:50:00,
2013-07-15 23:55:00,70.5,65.1,30.31,East,90,0.0,0.0,83,0.00,,CLR,0.00,VWS V12.08,2013-07-16 03:55:00,